Check out our new BloomSky Weather System.

Active alerts


No alerts


Thunder radar  blitzortung!


Rain radar more information rain snow radar


Visit our other weather sites:

Template documentation
and downloads

And another site



Weather Underground History page Text

Daily Summary for June 26, 2017 Units:  Metric    English   Both
« Previous Day
Next Day »
Daily Weekly Monthly Yearly Custom
  High: Low: Average:
Temperature: 32.7 °C 22.9 °C 27.2 °C
Dew Point: 25 °C 21.9 °C 23.4 °C
Humidity: 95 % 61 % 81 %
Wind Speed: 16.1 km/h 0 km/h 3.1 km/h
Wind Gust: 24.1 km/h - -
Wind:- - SE
Pressure: 1019.5 hPa 1014.4 hPa -
Precipitation: 0 mm    
Historical Graphs
 
 
Tabular Data for June 26, 2017
Time Temperature Dew Point Pressure Wind Wind Speed Wind Gust Humidity Rainfall Rate (Hourly)
00:02 25.1 °C 23.3 °C 1019.2 hPa SE 8 km/h 9.7 km/h 90 % 0 mm
00:07 25 °C 23.2 °C 1019.5 hPa East 3.2 km/h 14.5 km/h 90 % 0 mm
00:12 24.9 °C 23.3 °C 1019.2 hPa SSE 6.4 km/h 14.5 km/h 91 % 0 mm
00:17 24.8 °C 23.2 °C 1019.2 hPa East 6.4 km/h 14.5 km/h 91 % 0 mm
00:22 24.7 °C 23.1 °C 1019.5 hPa SE 1.6 km/h 14.5 km/h 91 % 0 mm
00:27 24.6 °C 22.8 °C 1019.5 hPa SE 1.6 km/h 14.5 km/h 90 % 0 mm
00:32 24.6 °C 22.8 °C 1019.5 hPa ESE 1.6 km/h 12.9 km/h 90 % 0 mm
00:37 24.5 °C 22.7 °C 1019.2 hPa ESE 6.4 km/h 12.9 km/h 90 % 0 mm
00:43 24.5 °C 22.6 °C 1019.2 hPa East 3.2 km/h 9.7 km/h 89 % 0 mm
00:48 24.5 °C 22.6 °C 1019.2 hPa East 4.8 km/h 6.4 km/h 89 % 0 mm
00:53 24.5 °C 22.4 °C 1019.2 hPa ESE 6.4 km/h 6.4 km/h 88 % 0 mm
00:58 24.5 °C 22.4 °C 1018.8 hPa East 3.2 km/h 11.3 km/h 88 % 0 mm
01:03 24.5 °C 22.4 °C 1018.8 hPa ESE 4.8 km/h 11.3 km/h 88 % 0 mm
01:08 24.4 °C 22.3 °C 1018.8 hPa ESE 1.6 km/h 11.3 km/h 88 % 0 mm
01:13 24.4 °C 22.3 °C 1018.8 hPa SW 1.6 km/h 9.7 km/h 88 % 0 mm
01:18 24.4 °C 22.3 °C 1018.8 hPa ESE 1.6 km/h 8 km/h 88 % 0 mm
01:23 24.4 °C 22.3 °C 1018.8 hPa ESE 1.6 km/h 8 km/h 88 % 0 mm
01:28 24.4 °C 22.3 °C 1018.5 hPa Calm   4.8 km/h 88 % 0 mm
01:33 24.3 °C 22.2 °C 1018.5 hPa ESE 1.6 km/h 4.8 km/h 88 % 0 mm
01:38 24.3 °C 22.2 °C 1018.5 hPa Calm   4.8 km/h 88 % 0 mm
01:43 24.3 °C 22.2 °C 1018.5 hPa North 1.6 km/h 3.2 km/h 88 % 0 mm
01:48 24.3 °C 22.2 °C 1018.5 hPa Calm   3.2 km/h 88 % 0 mm
01:53 24.3 °C 22.4 °C 1018.5 hPa Calm   4.8 km/h 89 % 0 mm
01:58 24.2 °C 22.3 °C 1018.5 hPa Calm   4.8 km/h 89 % 0 mm
02:03 24.2 °C 22.3 °C 1018.5 hPa Calm   4.8 km/h 89 % 0 mm
02:08 24.2 °C 22.3 °C 1018.5 hPa Calm   4.8 km/h 89 % 0 mm
02:13 24.2 °C 22.3 °C 1018.5 hPa Calm   3.2 km/h 89 % 0 mm
02:18 24.1 °C 22.2 °C 1018.5 hPa Calm   3.2 km/h 89 % 0 mm
02:23 24.1 °C 22.4 °C 1018.5 hPa East 1.6 km/h 1.6 km/h 90 % 0 mm
02:28 24.1 °C 22.4 °C 1018.5 hPa Calm   3.2 km/h 90 % 0 mm
02:33 24 °C 22.3 °C 1018.2 hPa Calm   3.2 km/h 90 % 0 mm
02:38 24 °C 22.3 °C 1018.2 hPa Calm   3.2 km/h 90 % 0 mm
02:39 24 °C 22.3 °C 1018.2 hPa Calm   3.2 km/h 90 % 0 mm
02:44 23.9 °C 22.2 °C 1018.5 hPa Calm   3.2 km/h 90 % 0 mm
02:49 23.9 °C 22.2 °C 1018.2 hPa Calm   3.2 km/h 90 % 0 mm
02:54 23.9 °C 22.2 °C 1018.2 hPa Calm   3.2 km/h 90 % 0 mm
02:59 23.8 °C 22.2 °C 1018.5 hPa Calm   3.2 km/h 91 % 0 mm
03:04 23.8 °C 22.2 °C 1018.5 hPa ESE 1.6 km/h 3.2 km/h 91 % 0 mm
03:09 23.7 °C 22.1 °C 1018.5 hPa Calm   1.6 km/h 91 % 0 mm
03:14 23.7 °C 22.1 °C 1018.8 hPa Calm   1.6 km/h 91 % 0 mm
03:19 23.7 °C 22.1 °C 1018.8 hPa Calm   3.2 km/h 91 % 0 mm
03:24 23.6 °C 22.2 °C 1018.8 hPa NNW 1.6 km/h 3.2 km/h 92 % 0 mm
03:29 23.6 °C 22.2 °C 1018.5 hPa Calm   3.2 km/h 92 % 0 mm
03:34 23.6 °C 22.2 °C 1018.5 hPa NE 3.2 km/h 4.8 km/h 92 % 0 mm
03:40 23.6 °C 22.2 °C 1018.5 hPa East 1.6 km/h 6.4 km/h 92 % 0 mm
03:45 23.5 °C 22.1 °C 1018.5 hPa Calm   6.4 km/h 92 % 0 mm
03:50 23.4 °C 22 °C 1018.5 hPa Calm   6.4 km/h 92 % 0 mm
03:55 23.4 °C 22.2 °C 1018.5 hPa East 3.2 km/h 6.4 km/h 93 % 0 mm
04:00 23.3 °C 22.1 °C 1018.5 hPa East 1.6 km/h 6.4 km/h 93 % 0 mm
04:05 23.3 °C 22.1 °C 1018.2 hPa Calm   4.8 km/h 93 % 0 mm
04:10 23.3 °C 22.1 °C 1018.2 hPa Calm   4.8 km/h 93 % 0 mm
04:15 23.2 °C 22 °C 1018.2 hPa Calm   4.8 km/h 93 % 0 mm
04:20 23.2 °C 22.2 °C 1018.2 hPa Calm   4.8 km/h 94 % 0 mm
04:25 23.1 °C 22.1 °C 1018.2 hPa Calm   4.8 km/h 94 % 0 mm
04:30 23.1 °C 22.1 °C 1018.5 hPa North 1.6 km/h 4.8 km/h 94 % 0 mm
04:35 23.1 °C 22.1 °C 1018.5 hPa North 1.6 km/h 4.8 km/h 94 % 0 mm
04:40 23 °C 22 °C 1018.5 hPa North 8 km/h 8 km/h 94 % 0 mm
04:45 23 °C 22 °C 1018.5 hPa NNE 3.2 km/h 8 km/h 94 % 0 mm
04:50 23 °C 22 °C 1018.5 hPa North 1.6 km/h 8 km/h 94 % 0 mm
04:55 23 °C 22 °C 1018.5 hPa Calm   8 km/h 94 % 0 mm
04:57 23 °C 22 °C 1018.2 hPa NE 4.8 km/h 8 km/h 94 % 0 mm
05:02 23 °C 22 °C 1018.2 hPa Calm   6.4 km/h 94 % 0 mm
05:07 22.9 °C 21.9 °C 1018.2 hPa Calm   4.8 km/h 94 % 0 mm
05:12 22.9 °C 21.9 °C 1018.2 hPa Calm   4.8 km/h 94 % 0 mm
05:17 22.9 °C 21.9 °C 1018.2 hPa North 1.6 km/h 4.8 km/h 94 % 0 mm
05:22 22.9 °C 21.9 °C 1018.2 hPa Calm   4.8 km/h 94 % 0 mm
05:27 22.9 °C 21.9 °C 1018.2 hPa North 1.6 km/h 3.2 km/h 94 % 0 mm
05:32 22.9 °C 21.9 °C 1018.2 hPa Calm   3.2 km/h 94 % 0 mm
05:37 22.9 °C 21.9 °C 1018.2 hPa Calm   3.2 km/h 94 % 0 mm
05:42 23 °C 22 °C 1018.2 hPa Calm   3.2 km/h 94 % 0 mm
05:47 23 °C 22 °C 1018.2 hPa Calm   4.8 km/h 94 % 0 mm
05:52 22.9 °C 21.9 °C 1018.2 hPa NNW 1.6 km/h 4.8 km/h 94 % 0 mm
05:53 22.9 °C 21.9 °C 1018.2 hPa Calm   4.8 km/h 94 % 0 mm
05:58 22.9 °C 22.1 °C 1018.2 hPa Calm   4.8 km/h 95 % 0 mm
06:03 23 °C 22.2 °C 1018.2 hPa Calm   3.2 km/h 95 % 0 mm
06:08 23.1 °C 22.3 °C 1018.5 hPa Calm   1.6 km/h 95 % 0 mm
06:13 23.1 °C 22.3 °C 1018.5 hPa Calm   1.6 km/h 95 % 0 mm
06:18 23.1 °C 22.3 °C 1018.5 hPa NNW 1.6 km/h 4.8 km/h 95 % 0 mm
06:23 23.1 °C 22.1 °C 1018.5 hPa NNW 1.6 km/h 4.8 km/h 94 % 0 mm
06:28 23.1 °C 22.3 °C 1018.5 hPa WNW 3.2 km/h 4.8 km/h 95 % 0 mm
06:33 23.1 °C 22.1 °C 1018.5 hPa NNW 1.6 km/h 6.4 km/h 94 % 0 mm
06:38 23.2 °C 22.2 °C 1018.5 hPa North 1.6 km/h 6.4 km/h 94 % 0 mm
06:43 23.2 °C 22.2 °C 1018.5 hPa North 3.2 km/h 6.4 km/h 94 % 0 mm
06:48 23.2 °C 22.2 °C 1018.5 hPa NNW 1.6 km/h 6.4 km/h 94 % 0 mm
06:53 23.2 °C 22.2 °C 1018.5 hPa NNW 1.6 km/h 9.7 km/h 94 % 0 mm
06:58 23.2 °C 22.2 °C 1018.5 hPa Calm   9.7 km/h 94 % 0 mm
07:03 23.1 °C 21.9 °C 1018.5 hPa NW 1.6 km/h 9.7 km/h 93 % 0 mm
07:08 23.2 °C 22 °C 1018.5 hPa NNW 1.6 km/h 6.4 km/h 93 % 0 mm
07:13 23.2 °C 22 °C 1018.5 hPa North 1.6 km/h 6.4 km/h 93 % 0 mm
07:18 23.3 °C 22.1 °C 1018.2 hPa NNE 3.2 km/h 6.4 km/h 93 % 0 mm
07:23 23.3 °C 22.1 °C 1018.2 hPa NNW 1.6 km/h 6.4 km/h 93 % 0 mm
07:24 23.3 °C 22.1 °C 1018.2 hPa NNW 3.2 km/h 6.4 km/h 93 % 0 mm
07:29 23.4 °C 22.2 °C 1018.5 hPa NNW 1.6 km/h 6.4 km/h 93 % 0 mm
07:34 23.5 °C 22.3 °C 1018.2 hPa NNE 3.2 km/h 8 km/h 93 % 0 mm
07:39 23.8 °C 22.6 °C 1018.5 hPa East 1.6 km/h 11.3 km/h 93 % 0 mm
07:44 24.1 °C 22.7 °C 1018.5 hPa ENE 3.2 km/h 11.3 km/h 92 % 0 mm
07:49 24.1 °C 22.5 °C 1018.5 hPa NNW 4.8 km/h 11.3 km/h 91 % 0 mm
07:54 24.2 °C 22.6 °C 1018.5 hPa NE 3.2 km/h 8 km/h 91 % 0 mm
07:59 24.2 °C 22.5 °C 1018.8 hPa NNE 3.2 km/h 8 km/h 90 % 0 mm
08:04 24.2 °C 22.5 °C 1018.8 hPa Calm   14.5 km/h 90 % 0 mm
08:09 24.4 °C 22.7 °C 1018.8 hPa Calm   14.5 km/h 90 % 0 mm
08:14 24.5 °C 22.7 °C 1018.8 hPa WNW 1.6 km/h 14.5 km/h 90 % 0 mm
08:19 24.6 °C 22.7 °C 1018.8 hPa NW 1.6 km/h 6.4 km/h 89 % 0 mm
08:24 24.7 °C 22.8 °C 1019.2 hPa NE 8 km/h 9.7 km/h 89 % 0 mm
08:29 24.7 °C 22.8 °C 1019.2 hPa NE 1.6 km/h 9.7 km/h 89 % 0 mm
08:34 24.7 °C 22.6 °C 1019.2 hPa NNW 4.8 km/h 9.7 km/h 88 % 0 mm
08:39 24.7 °C 22.6 °C 1019.5 hPa WNW 6.4 km/h 9.7 km/h 88 % 0 mm
08:44 24.8 °C 22.7 °C 1019.2 hPa Calm   8 km/h 88 % 0 mm
08:49 24.8 °C 22.7 °C 1019.2 hPa Calm   8 km/h 88 % 0 mm
08:54 24.9 °C 22.8 °C 1019.5 hPa SE 6.4 km/h 8 km/h 88 % 0 mm
08:59 25.1 °C 23 °C 1019.2 hPa SE 1.6 km/h 8 km/h 88 % 0 mm
09:04 25.3 °C 23.2 °C 1019.5 hPa East 1.6 km/h 6.4 km/h 88 % 0 mm
09:09 25.5 °C 23.4 °C 1019.5 hPa NNE 3.2 km/h 6.4 km/h 88 % 0 mm
09:14 25.6 °C 23.3 °C 1019.5 hPa East 4.8 km/h 6.4 km/h 87 % 0 mm
09:19 25.9 °C 23.6 °C 1019.5 hPa East 3.2 km/h 6.4 km/h 87 % 0 mm
09:24 26.2 °C 23.7 °C 1019.5 hPa ESE 1.6 km/h 6.4 km/h 86 % 0 mm
09:29 26.6 °C 23.9 °C 1019.5 hPa ESE 1.6 km/h 6.4 km/h 85 % 0 mm
09:34 26.9 °C 24 °C 1019.2 hPa NNW 3.2 km/h 8 km/h 84 % 0 mm
09:39 27 °C 23.7 °C 1019.2 hPa SSE 4.8 km/h 8 km/h 82 % 0 mm
09:44 27 °C 23.7 °C 1019.2 hPa ENE 3.2 km/h 8 km/h 82 % 0 mm
09:49 27.1 °C 23.6 °C 1019.2 hPa ENE 6.4 km/h 9.7 km/h 81 % 0 mm
09:54 27.1 °C 23.8 °C 1019.2 hPa ENE 8 km/h 14.5 km/h 82 % 0 mm
09:59 27.3 °C 23.7 °C 1018.8 hPa ENE 1.6 km/h 14.5 km/h 81 % 0 mm
10:04 27.5 °C 24.1 °C 1018.8 hPa ENE 1.6 km/h 14.5 km/h 82 % 0 mm
10:06 27.7 °C 24.3 °C 1018.8 hPa ESE 1.6 km/h 12.9 km/h 82 % 0 mm
10:09 28.1 °C 24.7 °C 1018.8 hPa Calm   12.9 km/h 82 % 0 mm
10:14 28.5 °C 24.3 °C 1018.8 hPa ESE 6.4 km/h 9.7 km/h 78 % 0 mm
10:20 28.4 °C 24.2 °C 1018.5 hPa ESE 6.4 km/h 9.7 km/h 78 % 0 mm
10:25 28.6 °C 24.4 °C 1018.5 hPa NE 3.2 km/h 11.3 km/h 78 % 0 mm
10:30 28.8 °C 24.4 °C 1018.5 hPa WNW 1.6 km/h 11.3 km/h 77 % 0 mm
10:35 29.1 °C 24.7 °C 1018.5 hPa NNW 4.8 km/h 11.3 km/h 77 % 0 mm
10:40 29.3 °C 24.4 °C 1018.5 hPa SE 6.4 km/h 9.7 km/h 75 % 0 mm
10:45 29.1 °C 24.2 °C 1018.5 hPa East 3.2 km/h 9.7 km/h 75 % 0 mm
10:50 29.2 °C 24.3 °C 1018.5 hPa SE 6.4 km/h 11.3 km/h 75 % 0 mm
10:55 29.3 °C 24.4 °C 1018.5 hPa ENE 1.6 km/h 11.3 km/h 75 % 0 mm
11:00 29.6 °C 24.2 °C 1018.5 hPa East 3.2 km/h 11.3 km/h 73 % 0 mm
11:05 29.8 °C 24.7 °C 1018.5 hPa ESE 8 km/h 9.7 km/h 74 % 0 mm
11:10 30.1 °C 24.7 °C 1018.5 hPa WNW 3.2 km/h 9.7 km/h 73 % 0 mm
11:15 30.3 °C 24.4 °C 1018.5 hPa East 6.4 km/h 9.7 km/h 71 % 0 mm
11:20 30.5 °C 24.6 °C 1018.5 hPa NW 4.8 km/h 9.7 km/h 71 % 0 mm
11:25 30.4 °C 24.5 °C 1018.5 hPa North 1.6 km/h 9.7 km/h 71 % 0 mm
11:26 30.4 °C 24.3 °C 1018.5 hPa ENE 3.2 km/h 9.7 km/h 70 % 0 mm
11:31 30.4 °C 24.5 °C 1018.5 hPa SSE 1.6 km/h 9.7 km/h 71 % 0 mm
11:36 30.6 °C 24.5 °C 1018.5 hPa Calm   9.7 km/h 70 % 0 mm
11:41 30.8 °C 24.4 °C 1018.5 hPa ESE 4.8 km/h 9.7 km/h 69 % 0 mm
11:46 30.8 °C 24.2 °C 1018.5 hPa NW 3.2 km/h 9.7 km/h 68 % 0 mm
11:51 30.7 °C 24.1 °C 1018.5 hPa NW 1.6 km/h 6.4 km/h 68 % 0 mm
11:56 30.7 °C 24.1 °C 1018.2 hPa SE 3.2 km/h 6.4 km/h 68 % 0 mm
12:01 30.9 °C 24.1 °C 1018.2 hPa NW 3.2 km/h 6.4 km/h 67 % 0 mm
12:06 30.9 °C 24.1 °C 1018.2 hPa Calm   6.4 km/h 67 % 0 mm
12:11 30.9 °C 24.1 °C 1018.2 hPa SSE 3.2 km/h 6.4 km/h 67 % 0 mm
12:16 30.9 °C 24.3 °C 1018.2 hPa Calm   6.4 km/h 68 % 0 mm
12:21 30.8 °C 24 °C 1017.8 hPa ESE 3.2 km/h 9.7 km/h 67 % 0 mm
12:26 30.8 °C 24.2 °C 1017.8 hPa WNW 3.2 km/h 9.7 km/h 68 % 0 mm
12:31 30.7 °C 24.4 °C 1017.8 hPa North 3.2 km/h 17.7 km/h 69 % 0 mm
12:36 30.9 °C 24.8 °C 1017.8 hPa East 1.6 km/h 17.7 km/h 70 % 0 mm
12:41 31.2 °C 24.6 °C 1017.8 hPa NNE 3.2 km/h 17.7 km/h 68 % 0 mm
12:46 31.3 °C 24.4 °C 1017.8 hPa NNW 6.4 km/h 12.9 km/h 67 % 0 mm
12:51 31.2 °C 24.6 °C 1017.8 hPa NNW 4.8 km/h 12.9 km/h 68 % 0 mm
12:56 31.4 °C 24.8 °C 1017.5 hPa ESE 3.2 km/h 12.9 km/h 68 % 0 mm
13:01 31.7 °C 24.8 °C 1017.5 hPa South 1.6 km/h 12.9 km/h 67 % 0 mm
13:06 32.1 °C 24.9 °C 1017.5 hPa ENE 11.3 km/h 12.9 km/h 66 % 0 mm
13:11 32.2 °C 24.8 °C 1017.2 hPa SE 9.7 km/h 11.3 km/h 65 % 0 mm
13:16 32.2 °C 24.5 °C 1017.2 hPa NE 3.2 km/h 14.5 km/h 64 % 0 mm
13:21 31.8 °C 24.1 °C 1017.2 hPa NE 6.4 km/h 14.5 km/h 64 % 0 mm
13:26 31.6 °C 23.7 °C 1017.2 hPa ENE 1.6 km/h 14.5 km/h 63 % 0 mm
13:31 31.4 °C 23.8 °C 1017.2 hPa SE 4.8 km/h 14.5 km/h 64 % 0 mm
13:36 31.2 °C 24.1 °C 1016.8 hPa ENE 3.2 km/h 11.3 km/h 66 % 0 mm
13:41 30.8 °C 23.7 °C 1016.8 hPa East 4.8 km/h 11.3 km/h 66 % 0 mm
13:46 30.7 °C 23.6 °C 1016.8 hPa ESE 6.4 km/h 11.3 km/h 66 % 0 mm
13:51 30.8 °C 23.5 °C 1016.8 hPa ENE 3.2 km/h 11.3 km/h 65 % 0 mm
13:56 30.8 °C 23.5 °C 1016.5 hPa Calm   12.9 km/h 65 % 0 mm
14:01 30.8 °C 23.7 °C 1016.5 hPa ENE 3.2 km/h 12.9 km/h 66 % 0 mm
14:06 30.8 °C 23.7 °C 1016.5 hPa East 3.2 km/h 16.1 km/h 66 % 0 mm
14:11 30.7 °C 23.6 °C 1016.1 hPa East 4.8 km/h 16.1 km/h 66 % 0 mm
14:16 30.8 °C 24 °C 1016.1 hPa SE 3.2 km/h 16.1 km/h 67 % 0 mm
14:21 31.2 °C 24.1 °C 1016.1 hPa East 3.2 km/h 9.7 km/h 66 % 0 mm
14:26 31.3 °C 23.7 °C 1016.1 hPa SE 4.8 km/h 14.5 km/h 64 % 0 mm
14:31 31.6 °C 24 °C 1015.8 hPa NNE 8 km/h 14.5 km/h 64 % 0 mm
14:36 31.8 °C 24.7 °C 1015.8 hPa NNW 3.2 km/h 14.5 km/h 66 % 0 mm
14:41 32.3 °C 24.6 °C 1015.8 hPa East 1.6 km/h 11.3 km/h 64 % 0 mm
14:46 32.2 °C 24.3 °C 1015.8 hPa WNW 1.6 km/h 11.3 km/h 63 % 0 mm
14:51 32.1 °C 24.2 °C 1015.5 hPa Calm   9.7 km/h 63 % 0 mm
14:56 32.4 °C 24.4 °C 1015.5 hPa Calm   9.7 km/h 63 % 0 mm
15:01 32.4 °C 24.2 °C 1015.5 hPa NE 3.2 km/h 12.9 km/h 62 % 0 mm
15:06 32.1 °C 24.7 °C 1015.5 hPa NNE 3.2 km/h 12.9 km/h 65 % 0 mm
15:11 32.4 °C 25 °C 1015.5 hPa ENE 3.2 km/h 12.9 km/h 65 % 0 mm
15:16 32.3 °C 24.4 °C 1015.5 hPa NW 8 km/h 17.7 km/h 63 % 0 mm
15:21 32 °C 24.1 °C 1015.5 hPa NW 3.2 km/h 17.7 km/h 63 % 0 mm
15:26 31.8 °C 24.7 °C 1015.5 hPa East 4.8 km/h 17.7 km/h 66 % 0 mm
15:31 32.2 °C 24.8 °C 1015.5 hPa East 3.2 km/h 9.7 km/h 65 % 0 mm
15:36 32.6 °C 24.4 °C 1015.1 hPa ENE 1.6 km/h 9.7 km/h 62 % 0 mm
15:38 32.6 °C 24.6 °C 1015.1 hPa East 1.6 km/h 9.7 km/h 63 % 0 mm
15:43 32.6 °C 24.9 °C 1015.1 hPa WNW 1.6 km/h 14.5 km/h 64 % 0 mm
15:48 32.7 °C 24.5 °C 1015.1 hPa SE 1.6 km/h 14.5 km/h 62 % 0 mm
15:53 32.6 °C 24.6 °C 1015.1 hPa North 8 km/h 16.1 km/h 63 % 0 mm
15:58 32.5 °C 24 °C 1015.1 hPa North 4.8 km/h 16.1 km/h 61 % 0 mm
16:03 32.4 °C 24.2 °C 1015.1 hPa ESE 4.8 km/h 16.1 km/h 62 % 0 mm
16:08 32.3 °C 23.8 °C 1015.1 hPa ESE 8 km/h 16.1 km/h 61 % 0 mm
16:13 32.1 °C 23.9 °C 1015.1 hPa East 3.2 km/h 12.9 km/h 62 % 0 mm
16:18 32.1 °C 23.9 °C 1014.8 hPa ESE 9.7 km/h 12.9 km/h 62 % 0 mm
16:23 31.7 °C 23.5 °C 1015.1 hPa ESE 3.2 km/h 12.9 km/h 62 % 0 mm
16:28 31.1 °C 24.2 °C 1014.8 hPa SE 12.9 km/h 17.7 km/h 67 % 0 mm
16:33 30.2 °C 24.1 °C 1014.8 hPa ESE 9.7 km/h 22.5 km/h 70 % 0 mm
16:39 29.8 °C 24 °C 1015.1 hPa SE 9.7 km/h 24.1 km/h 71 % 0 mm
16:44 29.6 °C 24 °C 1015.1 hPa SE 6.4 km/h 24.1 km/h 72 % 0 mm
16:49 29.7 °C 24.3 °C 1015.1 hPa ESE 16.1 km/h 24.1 km/h 73 % 0 mm
16:54 29.9 °C 24.5 °C 1015.1 hPa SE 9.7 km/h 20.9 km/h 73 % 0 mm
16:59 30.1 °C 24.5 °C 1015.1 hPa East 9.7 km/h 19.3 km/h 72 % 0 mm
17:04 29.9 °C 24.1 °C 1015.1 hPa ESE 4.8 km/h 19.3 km/h 71 % 0 mm
17:09 30 °C 24.4 °C 1015.1 hPa SE 6.4 km/h 17.7 km/h 72 % 0 mm
17:14 30.3 °C 24.7 °C 1014.8 hPa ESE 1.6 km/h 17.7 km/h 72 % 0 mm
17:19 30.7 °C 24.8 °C 1014.8 hPa East 3.2 km/h 14.5 km/h 71 % 0 mm
17:24 30.7 °C 24.4 °C 1014.8 hPa East 3.2 km/h 9.7 km/h 69 % 0 mm
17:29 30.3 °C 24 °C 1014.4 hPa ESE 6.4 km/h 14.5 km/h 69 % 0 mm
17:34 30.2 °C 24.1 °C 1014.4 hPa South 4.8 km/h 14.5 km/h 70 % 0 mm
17:39 30.1 °C 23.8 °C 1014.4 hPa ESE 8 km/h 14.5 km/h 69 % 0 mm
17:44 30 °C 23.7 °C 1014.4 hPa SE 4.8 km/h 14.5 km/h 69 % 0 mm
17:49 30.2 °C 23.4 °C 1014.4 hPa East 4.8 km/h 12.9 km/h 67 % 0 mm
17:54 30.6 °C 23.3 °C 1014.4 hPa ESE 4.8 km/h 12.9 km/h 65 % 0 mm
17:59 30.8 °C 23.2 °C 1014.8 hPa ESE 8 km/h 12.9 km/h 64 % 0 mm
18:04 30.6 °C 23.3 °C 1014.8 hPa SE 9.7 km/h 12.9 km/h 65 % 0 mm
18:09 30.5 °C 23.4 °C 1015.1 hPa SE 4.8 km/h 14.5 km/h 66 % 0 mm
18:14 30.3 °C 23.5 °C 1014.8 hPa SSE 3.2 km/h 14.5 km/h 67 % 0 mm
18:19 30.1 °C 23.5 °C 1015.1 hPa East 4.8 km/h 14.5 km/h 68 % 0 mm
18:24 29.9 °C 23.6 °C 1015.1 hPa ESE 6.4 km/h 12.9 km/h 69 % 0 mm
18:29 29.8 °C 24 °C 1015.1 hPa East 9.7 km/h 12.9 km/h 71 % 0 mm
18:34 29.7 °C 23.9 °C 1015.1 hPa ESE 3.2 km/h 12.9 km/h 71 % 0 mm
18:39 29.6 °C 24 °C 1015.1 hPa ESE 4.8 km/h 12.9 km/h 72 % 0 mm
18:44 29.6 °C 24.2 °C 1015.1 hPa ESE 8 km/h 12.9 km/h 73 % 0 mm
18:49 29.6 °C 24.5 °C 1015.1 hPa SSW 3.2 km/h 12.9 km/h 74 % 0 mm
18:54 29.5 °C 24.4 °C 1015.1 hPa SE 3.2 km/h 11.3 km/h 74 % 0 mm
18:59 29.4 °C 24.3 °C 1015.1 hPa SE 1.6 km/h 11.3 km/h 74 % 0 mm
19:04 29.4 °C 24 °C 1015.5 hPa SE 4.8 km/h 9.7 km/h 73 % 0 mm
19:09 29.3 °C 24 °C 1015.1 hPa SE 3.2 km/h 12.9 km/h 73 % 0 mm
19:14 29.2 °C 23.9 °C 1015.1 hPa SE 4.8 km/h 12.9 km/h 73 % 0 mm
19:19 29.2 °C 23.9 °C 1015.1 hPa SE 3.2 km/h 12.9 km/h 73 % 0 mm
19:24 29.1 °C 24 °C 1015.1 hPa SE 6.4 km/h 11.3 km/h 74 % 0 mm
19:29 29.1 °C 24 °C 1015.1 hPa SSE 3.2 km/h 11.3 km/h 74 % 0 mm
19:34 29 °C 23.9 °C 1015.1 hPa ESE 11.3 km/h 11.3 km/h 74 % 0 mm
19:39 28.9 °C 24 °C 1015.1 hPa East 8 km/h 14.5 km/h 75 % 0 mm
19:44 28.9 °C 24.2 °C 1015.1 hPa SE 4.8 km/h 14.5 km/h 76 % 0 mm
19:49 28.9 °C 24.2 °C 1015.1 hPa South 4.8 km/h 14.5 km/h 76 % 0 mm
19:54 28.8 °C 24.4 °C 1015.5 hPa SE 6.4 km/h 12.9 km/h 77 % 0 mm
19:59 28.7 °C 24.5 °C 1015.5 hPa SSE 6.4 km/h 14.5 km/h 78 % 0 mm
20:04 28.3 °C 23.4 °C 1015.5 hPa East 6.4 km/h 16.1 km/h 75 % 0 mm
20:09 28.1 °C 23 °C 1015.5 hPa South 3.2 km/h 16.1 km/h 74 % 0 mm
20:14 28 °C 22.9 °C 1015.5 hPa SE 4.8 km/h 16.1 km/h 74 % 0 mm
20:19 27.9 °C 23.1 °C 1015.5 hPa SE 1.6 km/h 14.5 km/h 75 % 0 mm
20:25 27.9 °C 23.3 °C 1015.5 hPa SE 6.4 km/h 14.5 km/h 76 % 0 mm
20:30 27.8 °C 23.2 °C 1015.5 hPa East 8 km/h 11.3 km/h 76 % 0 mm
20:35 27.7 °C 23.3 °C 1015.1 hPa ENE 4.8 km/h 11.3 km/h 77 % 0 mm
20:40 27.6 °C 23.2 °C 1015.1 hPa WSW 1.6 km/h 14.5 km/h 77 % 0 mm
20:45 27.6 °C 23.4 °C 1015.1 hPa SSE 4.8 km/h 14.5 km/h 78 % 0 mm
20:50 27.5 °C 23.3 °C 1015.1 hPa ESE 1.6 km/h 8 km/h 78 % 0 mm
20:55 27.4 °C 23.2 °C 1015.1 hPa SE 4.8 km/h 9.7 km/h 78 % 0 mm
21:00 27.4 °C 23.2 °C 1015.1 hPa SSW 1.6 km/h 9.7 km/h 78 % 0 mm
21:05 27.3 °C 23.3 °C 1015.1 hPa South 3.2 km/h 9.7 km/h 79 % 0 mm
21:10 27.2 °C 23.7 °C 1015.1 hPa Calm   8 km/h 81 % 0 mm
21:15 26.9 °C 23.8 °C 1015.1 hPa Calm   8 km/h 83 % 0 mm
21:20 26.7 °C 23.8 °C 1015.1 hPa Calm   4.8 km/h 84 % 0 mm
21:25 26.5 °C 23.8 °C 1015.1 hPa Calm   3.2 km/h 85 % 0 mm
21:30 26.3 °C 23.6 °C 1015.1 hPa Calm   1.6 km/h 85 % 0 mm
21:35 26.2 °C 23.7 °C 1015.1 hPa Calm   1.6 km/h 86 % 0 mm
21:40 26 °C 23.5 °C 1015.1 hPa Calm   1.6 km/h 86 % 0 mm
21:45 25.9 °C 23.6 °C 1015.1 hPa Calm   1.6 km/h 87 % 0 mm
21:50 25.9 °C 23.6 °C 1015.5 hPa Calm   1.6 km/h 87 % 0 mm
21:56 25.9 °C 23.8 °C 1015.5 hPa Calm   1.6 km/h 88 % 0 mm
22:01 25.8 °C 23.7 °C 1015.5 hPa Calm     88 % 0 mm
22:06 25.8 °C 23.7 °C 1015.8 hPa Calm   1.6 km/h 88 % 0 mm
22:11 25.8 °C 23.8 °C 1015.8 hPa Calm   1.6 km/h 89 % 0 mm
22:16 25.8 °C 23.8 °C 1015.8 hPa Calm   1.6 km/h 89 % 0 mm
22:21 25.8 °C 23.8 °C 1015.8 hPa Calm   1.6 km/h 89 % 0 mm
22:26 25.8 °C 23.8 °C 1015.8 hPa WNW 1.6 km/h 1.6 km/h 89 % 0 mm
22:31 25.9 °C 23.9 °C 1015.8 hPa Calm   3.2 km/h 89 % 0 mm
22:36 25.9 °C 23.9 °C 1015.8 hPa Calm   3.2 km/h 89 % 0 mm
22:41 26.1 °C 24.1 °C 1016.1 hPa Calm   3.2 km/h 89 % 0 mm
22:42 26.1 °C 24.1 °C 1016.1 hPa ESE 1.6 km/h 3.2 km/h 89 % 0 mm
22:47 26.1 °C 24.1 °C 1015.8 hPa Calm   3.2 km/h 89 % 0 mm
22:52 26.1 °C 24.1 °C 1015.8 hPa ENE 1.6 km/h 3.2 km/h 89 % 0 mm
22:57 26.2 °C 24.1 °C 1016.1 hPa ENE 3.2 km/h 4.8 km/h 88 % 0 mm
23:02 26.2 °C 24.1 °C 1015.8 hPa ENE 1.6 km/h 4.8 km/h 88 % 0 mm
23:07 26.2 °C 24.1 °C 1015.8 hPa SE 1.6 km/h 4.8 km/h 88 % 0 mm
23:12 26.2 °C 24.1 °C 1015.8 hPa Calm   4.8 km/h 88 % 0 mm
23:17 26.1 °C 24 °C 1015.8 hPa East 3.2 km/h 4.8 km/h 88 % 0 mm
23:22 26.1 °C 24.1 °C 1016.1 hPa ESE 1.6 km/h 4.8 km/h 89 % 0 mm
23:27 26.1 °C 24.1 °C 1016.1 hPa ENE 3.2 km/h 4.8 km/h 89 % 0 mm
Spring, Texas: Villages of Bridgestone
Compliments of Weather Underground - 2.75 mb

Script developed by  Jim McMurry - jmcmurry@mwt.net Adapted for the template by  Wim van der Kuil - Leuven-Template.eu

You find our weather info also at:

UK Metoffice

WeatherCloud

Weather Underground

Mid-South Weather Network

AWEKAS

Citizen Weather Observer Program (CWOP)

HAMweather, WeatherForYou, PWS Weather

Equipment we use:

Weather-station
Davis Vantage Vue

Weather-program
Meteohub

Weather-server
Debian 7.9 x86 (Guest)

Provider
DreamHost

Davis Vantage Vue

Meteohub

Debian 7.9 x86 (Guest)

DreamHost